Weather History for Jamestown, ND

Change the Weather History Date:

Monday, April 22, 2013

  Actual Average Record
Temperature  
Mean Temperature 26 °F 46 °F  
Max Temperature 32 °F 59 °F 91 °F (1990)
Min Temperature 19 °F 33 °F 12 °F (1909)
Degree Days  
Heating Degree Days 39 19  
Month to date heating degree days 830 539  
Since 1 July heating degree days 9136 8459  
Cooling Degree Days 0 0  
Month to date cooling degree days 0 0  
Year to date cooling degree days 0 0  
Moisture  
Dew Point 22 °F    
Average Humidity 76    
Maximum Humidity 88    
Minimum Humidity 63    
Precipitation  
Precipitation 0.00 in 0.05 in 0.46 in (1968)
Month to date precipitation 0.22 0.76  
Year to date precipitation 0.99 2.45  
Sea Level Pressure  
Sea Level Pressure 30.34 in    
Wind  
Wind Speed 13 mph (NNW)    
Max Wind Speed 20 mph    
Max Gust Speed 24 mph    
Visibility 10 miles    
Events      
T = Trace of Precipitation, MM = Missing Value Source: NWS Daily Summary

Daily Weather History Graph

Daily Weather History Graph

Search for Another Location

Airport:

Trip Planner

Search our weather history database for the weather conditions in past years. The results will help you decide how hot, cold, wet, or windy it might be!

Date:

Astronomy

Apr. 22, 2013 Rise Set
Actual Time 6:33 AM CDT 8:33 PM CDT
Civil Twilight 6:01 AM CDT 9:06 PM CDT
Nautical Twilight 5:20 AM CDT 9:46 PM CDT
Astronomical Twilight 4:36 AM CDT 10:31 PM CDT
Moon 5:13 PM CDT (4/22) 4:42 AM CDT (4/22)
Length of Visible Light 15h 04m
Length of Day
13h 59m
Waxing Gibbous, 88% of the Moon is Illuminated
Apr 22
Waxing Gibbous
Apr 25
Full
May 2
Last Quarter
May 9
New
May 17
First Quarter

Hourly Weather History & Observations

Time (CDT) Temp. Windchill Dew Point Humidity Pressure Visibility Wind Dir Wind Speed Gust Speed Precip Events Conditions
12:56 AM 27.0 °F 16.1 °F 21.9 °F 81% 30.25 in 10.0 mi NW 12.7 mph - N/A   Clear
1:56 AM 27.0 °F 19.5 °F 21.9 °F 81% 30.28 in 10.0 mi NW 6.9 mph - N/A   Partly Cloudy
2:56 AM 28.0 °F 17.0 °F 23.0 °F 81% 30.25 in 10.0 mi NNW 13.8 mph - N/A   Clear
3:29 AM 28.4 °F 17.5 °F 23.0 °F 80% 30.20 in 10.0 mi NNW 13.8 mph - N/A   Mostly Cloudy
3:43 AM 28.4 °F 16.6 °F 23.0 °F 80% 30.19 in 10.0 mi NNW 16.1 mph - N/A   Partly Cloudy
3:56 AM 28.9 °F 17.7 °F 23.0 °F 78% 30.26 in 10.0 mi NNW 15.0 mph - N/A   Scattered Clouds
4:56 AM 28.0 °F 16.5 °F 21.9 °F 78% 30.27 in 10.0 mi NNW 15.0 mph - N/A   Mostly Cloudy
5:56 AM 28.0 °F 17.0 °F 21.0 °F 75% 30.30 in 10.0 mi North 13.8 mph - N/A   Overcast
6:56 AM 28.0 °F 17.5 °F 21.0 °F 75% 30.32 in 10.0 mi NNW 12.7 mph - N/A   Overcast
7:56 AM 28.0 °F 18.6 °F 21.9 °F 78% 30.33 in 10.0 mi North 10.4 mph - N/A   Overcast
8:56 AM 28.0 °F 18.1 °F 21.9 °F 78% 30.37 in 10.0 mi NNW 11.5 mph - N/A   Overcast
9:56 AM 28.9 °F 17.7 °F 21.9 °F 75% 30.37 in 10.0 mi North 15.0 mph - N/A   Overcast
10:56 AM 30.9 °F 19.8 °F 23.0 °F 72% 30.37 in 10.0 mi North 16.1 mph - N/A   Partly Cloudy
11:17 AM 30.2 °F 18.5 °F 23.0 °F 75% 30.31 in 10.0 mi North 17.3 mph - N/A   Mostly Cloudy
11:56 AM 30.9 °F 19.4 °F 23.0 °F 72% 30.39 in 10.0 mi North 17.3 mph - N/A   Overcast
12:56 PM 30.9 °F 20.7 °F 23.0 °F 72% 30.40 in 10.0 mi North 13.8 mph - N/A   Overcast
1:34 PM 32.0 °F 21.2 °F 23.0 °F 69% 30.33 in 10.0 mi North 16.1 mph - N/A   Overcast
1:56 PM 32.0 °F 21.6 °F 23.0 °F 69% 30.39 in 10.0 mi North 15.0 mph - N/A   Overcast
2:34 PM 30.2 °F 19.8 °F 21.2 °F 69% 30.33 in 10.0 mi North 13.8 mph - N/A   Overcast
2:51 PM 30.2 °F 20.2 °F 23.0 °F 75% 30.33 in 10.0 mi North 12.7 mph - N/A   Overcast
2:56 PM 30.9 °F 21.2 °F 23.0 °F 72% 30.39 in 10.0 mi North 12.7 mph - N/A   Overcast
3:32 PM 30.2 °F 19.8 °F 23.0 °F 75% 30.33 in 10.0 mi North 13.8 mph - N/A   Overcast
3:56 PM 32.0 °F 21.6 °F 24.1 °F 73% 30.39 in 10.0 mi NNW 15.0 mph - N/A   Overcast
4:06 PM 32.0 °F 21.2 °F 24.8 °F 75% 30.33 in 10.0 mi NNW 16.1 mph - N/A   Overcast
4:51 PM 30.2 °F 20.2 °F 24.8 °F 80% 30.32 in 10.0 mi North 12.7 mph - N/A   Overcast
4:56 PM 30.9 °F 20.2 °F 24.1 °F 76% 30.39 in 10.0 mi NNW 15.0 mph - N/A   Overcast
5:17 PM 30.2 °F 18.5 °F 21.2 °F 69% 30.32 in 10.0 mi NNW 17.3 mph - N/A   Overcast
5:56 PM 30.9 °F 19.8 °F 21.0 °F 67% 30.38 in 10.0 mi NNW 16.1 mph - N/A   Overcast
6:34 PM 30.2 °F 18.5 °F 21.2 °F 69% 30.32 in 10.0 mi NNW 17.3 mph - N/A   Overcast
6:45 PM 30.2 °F 19.8 °F 21.2 °F 69% 30.32 in 10.0 mi NNW 13.8 mph - N/A   Overcast
6:56 PM 30.0 °F 19.5 °F 19.9 °F 66% 30.39 in 10.0 mi NNW 13.8 mph - N/A   Overcast
7:56 PM 30.0 °F 19.5 °F 21.0 °F 69% 30.39 in 10.0 mi NNW 13.8 mph - N/A   Mostly Cloudy
8:56 PM 28.0 °F 19.3 °F 21.0 °F 75% 30.41 in 10.0 mi NNW 9.2 mph - N/A   Mostly Cloudy
9:56 PM 24.1 °F 16.0 °F 19.9 °F 84% 30.43 in 10.0 mi NW 6.9 mph - N/A   Clear
10:56 PM 23.0 °F 13.9 °F 19.0 °F 85% 30.42 in 10.0 mi WNW 8.1 mph - N/A   Clear
11:56 PM 21.0 °F 11.4 °F 17.1 °F 85% 30.42 in 10.0 mi WNW 8.1 mph - N/A   Clear